SKY MUSTER 2

Last updated on Aug. 5, 2020, 5:33 a.m. UTC

1 41794U 16060B   20217.90489362 -.00000262  00000-0  00000-0 0  9992
2 41794   0.0154 108.3642 0001775  31.5114 284.6053  1.00267907 14034
UTC
Height (km)
Latitude
Longitude
Inclination
Orbital Period
UTC large
Height (km)
Speed (km/s)
/
Latitude / Longitude
Inclination (degrees)
Orbital Period (minutes)
Azimuth
Elevation
Range (km)
Doppler Factor
iOS Compass Heading
iOS Angle

Next 30 passes for location: Hong Kong

Rise time Rise Azimuth (degrees) Set time Set Azimuth (degrees) Duration Max altitude (degrees)

No matching passes for this satellites